EW1967 Weather Reports


Display with metric or nautical units.
time (UTC)temp
F
wind
direction
speed
MPH
gust
MPH
rain 1hr
in
rain 24hr
in
rain mn
in
humidity
%
barometer
mb
20260507093037 66 140 4.0 7.0 0.00 0.02 0.01 64 1010.8
20260507091535 66 102 2.0 7.0 0.00 0.02 0.01 65 1010.9
20260507090031 65 81 3.0 7.0 0.00 0.02 0.01 64 1011.1
20260507084529 64 60 0.0 4.0 0.00 0.02 0.01 65 1011.2
20260507083027 64 44 1.0 4.0 0.00 0.02 0.01 65 1011.3
20260507081525 63 88 1.0 4.0 0.00 0.02 0.01 66 1011.4
20260507080021 63 88 1.0 6.0 0.00 0.02 0.01 70 1011.4
20260507074519 61 134 2.0 5.0 0.00 0.02 0.01 70 1011.5
20260507073016 61 104 2.0 4.0 0.00 0.02 0.01 72 1011.3
20260507071518 61 63 1.0 3.0 0.00 0.02 0.01 70 1011.4
20260507070018 60 56 0.0 3.0 0.00 0.02 0.01 75 1011.5
20260507064512 59 91 0.0 3.0 0.00 0.02 0.01 77 1011.4
20260507063004 58 96 0.0 2.0 0.00 0.02 0.01 80 1011.3
20260507061502 56 98 1.0 4.0 0.00 0.02 0.01 83 1011.4
20260507060101 57 52 2.0 3.0 0.00 0.02 0.01 83 1011.2
20260507054556 55 355 0.0 0.0 0.00 0.02 0.01 85 1011.2
20260507053118 54 355 0.0 1.0 0.00 0.02 0.01 86 1011.4
20260507051554 53 355 0.0 0.0 0.00 0.02 0.01 86 1011.2
20260507050050 53 355 0.0 0.0 0.00 0.02 0.01 86 1011.2
20260507044558 53 355 0.0 0.0 0.00 0.02 0.01 86 1011.1
20260507043048 53 355 0.0 2.0 0.00 0.02 0.01 85 1010.9
20260507041546 53 355 0.0 3.0 0.00 0.02 0.01 84 1010.8
20260507040044 54 123 0.0 2.0 0.00 0.02 0.01 82 1010.7
20260507034543 54 132 1.0 4.0 0.00 0.03 0.01 80 1010.5
20260507033048 55 229 0.0 5.0 0.00 0.03 0.01 79 1010.7
20260507031551 55 238 1.0 5.0 0.00 0.03 0.01 79 1010.8
20260507030042 55 251 1.0 4.0 0.00 0.03 0.01 78 1010.7
20260507024541 55 198 1.0 5.0 0.00 0.08 0.01 78 1010.7
20260507023034 55 285 2.0 7.0 0.00 0.08 0.01 77 1010.7
20260507021536 56 250 1.0 9.0 0.00 0.08 0.01 75 1010.5
20260507020032 56 265 2.0 8.0 0.00 0.08 0.01 75 1010.4
20260507014541 56 268 1.0 7.0 0.00 0.08 0.01 74 1010.3
20260507013037 56 288 1.0 5.0 0.00 0.08 0.01 75 1010.2
20260507011536 55 229 0.0 2.0 0.00 0.08 0.01 77 1010.2
20260507010038 55 242 0.0 2.0 0.00 0.08 0.01 80 1010.2
20260507004528 56 243 0.0 1.0 0.00 0.08 0.01 74 1010.2
20260507003027 56 239 1.0 3.0 0.00 0.08 0.01 73 1010.1
20260507001528 55 237 2.0 7.0 0.00 0.08 0.01 77 1010.2
20260507000024 56 28 0.0 2.0 0.00 0.08 0.01 76 1010.3
20260506234523 56 233 0.0 10.0 0.00 0.08 0.01 74 1010.4
20260506233021 57 157 4.0 8.0 0.00 0.08 0.01 75 1010.6
20260506231520 57 187 2.0 5.0 0.01 0.08 0.01 74 1010.6
20260506230017 56 220 4.0 8.0 0.01 0.08 0.01 77 1010.7
20260506224517 56 145 0.0 5.0 0.01 0.08 0.01 78 1010.8
20260506223018 56 138 1.0 6.0 0.01 0.08 0.01 76 1010.9
20260506221510 57 241 2.0 10.0 0.00 0.07 0.00 74 1010.7
20260506220007 58 223 4.0 11.0 0.00 0.07 0.00 73 1010.9
20260506214507 58 223 5.0 15.0 0.00 0.07 0.07 73 1010.9
20260506213006 58 232 5.0 10.0 0.00 0.07 0.07 73 1011.0
20260506211504 58 224 5.0 10.0 0.00 0.07 0.07 72 1011.0
20260506210009 57 215 2.0 7.0 0.00 0.07 0.07 73 1010.9
20260506204503 57 167 2.0 9.0 0.00 0.07 0.07 74 1011.1
20260506203005 57 191 4.0 9.0 0.00 0.07 0.07 74 1011.1
20260506201501 58 242 4.0 8.0 0.00 0.07 0.07 74 1011.4
20260506200001 58 178 3.0 9.0 0.00 0.07 0.07 74 1011.4
20260506194501 57 223 5.0 8.0 0.00 0.07 0.07 75 1011.2
20260506193106 57 197 4.0 6.0 0.00 0.07 0.07 76 1011.1
20260506191559 58 222 1.0 4.0 0.00 0.07 0.07 76 1011.0
20260506191502 58 223 2.0 4.0 0.00 0.07 0.07 76 1010.9
20260506190159 57 192 2.0 4.0 0.00 0.07 0.07 77 1010.8
20260506184558 58 171 0.0 5.0 0.00 0.07 0.07 75 1010.7
20260506183059 58 238 4.0 10.0 0.00 0.07 0.07 75 1010.8
20260506181558 59 235 1.0 4.0 0.00 0.07 0.07 76 1010.7
20260506180056 59 250 1.0 4.0 0.00 0.07 0.07 75 1010.6
20260506174556 59 355 0.0 4.0 0.00 0.07 0.07 74 1010.4
20260506173124 59 210 2.0 4.0 0.00 0.07 0.07 73 1010.4
20260506171601 60 295 3.0 13.0 0.00 0.07 0.07 72 1010.1
20260506170052 60 275 3.0 9.0 0.00 0.07 0.07 71 1010.1
20260506164559 61 235 1.0 4.0 0.00 0.07 0.07 69 1010.0
20260506163103 61 194 4.0 9.0 0.00 0.07 0.07 69 1010.0
20260506161617 61 223 2.0 9.0 0.00 0.07 0.07 70 1010.1
20260506160051 62 196 8.0 17.0 0.00 0.07 0.07 68 1010.1
20260506154552 62 163 7.0 14.0 0.00 0.07 0.07 68 1009.9
20260506153056 62 223 5.0 16.0 0.00 0.07 0.07 68 1010.2
20260506151549 62 209 9.0 19.0 0.00 0.07 0.07 67 1010.3
20260506150046 62 221 8.0 13.0 0.00 0.07 0.07 69 1010.2
20260506144545 63 234 10.0 19.0 0.00 0.07 0.07 69 1010.3
20260506143046 63 212 6.0 17.0 0.00 0.07 0.07 68 1010.2
20260506141547 63 190 8.0 15.0 0.00 0.07 0.07 68 1010.1
20260506140043 64 233 5.0 13.0 0.00 0.07 0.07 69 1010.0
20260506134541 64 162 7.0 15.0 0.00 0.07 0.07 66 1010.0
20260506133041 65 244 3.0 9.0 0.00 0.07 0.07 66 1010.2
20260506131548 65 209 1.0 12.0 0.00 0.07 0.07 66 1010.3
20260506130054 65 242 7.0 19.0 0.00 0.07 0.07 64 1010.4
20260506124537 65 214 8.0 19.0 0.00 0.07 0.07 66 1010.5
20260506123040 65 150 5.0 17.0 0.00 0.07 0.07 67 1010.5
20260506121535 65 171 9.0 14.0 0.00 0.07 0.07 65 1010.5
20260506120036 65 144 4.0 15.0 0.00 0.07 0.07 67 1010.5
20260506114535 65 228 5.0 9.0 0.00 0.07 0.07 64 1010.6
20260506113033 65 175 7.0 16.0 0.00 0.07 0.07 67 1010.8
20260506111528 64 205 7.0 15.0 0.01 0.07 0.07 64 1010.8
20260506110027 63 243 5.0 11.0 0.01 0.07 0.07 65 1010.9
20260506104521 62 200 7.0 12.0 0.01 0.07 0.07 67 1011.2
20260506103022 62 200 7.0 14.0 0.01 0.07 0.07 68 1011.3
20260506101530 62 299 0.0 4.0 0.00 0.06 0.06 70 1011.3
20260506100014 61 207 2.0 9.0 0.00 0.06 0.06 73 1011.5
20260506094522 60 36 1.0 6.0 0.00 0.06 0.06 75 1011.5